Location: Bukit Lungun
(2.6833°N, 113.9667°E)
Time: 10:54:30
(UTC+00:00)

NOSS 3-4 (A) - Pass Details

Date: 02 March 2021
Orbit: 873 x 1339 km, 63.4° (Epoch: 19 April)

Event Time Altitude Azimuth Distance (km) Brightness Sun altitude
Exits shadow 21:43:07 11° 240° (WSW) 2,490 5.2 -13.5°
Maximum altitude 21:47:40 26° 294° (WNW) 1,649 4.2 -12.3°
Drops below altitude 10° 21:52:24 10° 349° (N) 2,513 5.5 -11.2°
Sets 21:55:17 0° 2° (N) 3,465 6.3 -10.5°
